[[{"header":{"parameterUnit":"m.s-1","parameterCategory":1,"la1":30.2991,"la2":30.254,"lo1":-89.0895,"lo2":-89.0444,"dy":0.0017,"dx":0.0017,"nx":28,"ny":28,"refTime":"2024-04-23T09:00:00:Z","depth":0,"parameterNumber":2,"parameterNumberName":"U-component_of_WINDS"},"data":[0,0,0,0,0,0,0,0,0,0,0,0,0,0,0,0,0,0,0,0,0,0,0,0,0,0,0,0,0,0,0,0,0,0,0,0,0,0,0,0,0,0,0,0,0,0,0,0,0,0,0,0,0,0,0,0,0,0,2.4575,2.4576,0,2.4652,2.4652,2.4653,2.4632,2.4631,2.4629,2.4628,2.4703,2.4707,2.471,0,0,0,0,0,0,0,0,0,0,0,0,0,2.4407,2.441,2.4575,2.4576,2.4577,2.4651,2.4652,2.4653,2.4632,2.463,2.4629,2.4627,2.4702,2.4706,2.471,0,0,0,0,0,0,0,0,0,0,0,0,0,2.4481,2.4411,2.4575,2.4576,2.4576,2.4651,2.4652,2.4654,2.4633,2.463,2.4628,2.4626,2.4701,2.4706,2.4711,2.4789,0,0,2.4727,2.4729,0,0,0,0,0,0,0,0,2.4477,2.4488,2.4575,2.4576,2.4577,2.463,2.4621,2.4699,2.4633,2.4611,2.4627,2.4625,2.4681,2.4687,2.4707,2.4793,2.4796,2.4727,2.473,2.4733,2.4734,0,0,0,0,0,0,0,2.4472,2.4484,2.4605,2.4576,2.4577,2.4571,2.4579,2.4636,2.4658,2.4613,2.4612,2.4621,2.4681,2.4702,2.4708,2.4797,2.4727,2.4732,2.4735,2.4737,2.4947,2.4949,0,0,0,0,0,0,2.4467,2.448,2.4603,2.4608,2.452,2.4576,2.4584,2.4615,2.4657,2.4661,2.4623,2.462,2.4694,2.4702,2.4711,2.4802,2.4733,2.4737,2.474,2.4944,2.4947,2.495,0,0,0,0,0,0,2.4463,2.4478,2.46,2.4543,2.4559,2.4581,2.4616,2.4618,2.4639,2.4665,2.4668,2.4641,2.4693,2.4704,2.4769,2.4804,2.474,2.4745,2.4941,2.4945,2.4949,2.4987,0,0,0,0,0,0,2.4458,2.4477,2.4508,2.4544,2.4562,2.4658,2.4618,2.4621,2.4648,2.4645,2.4682,2.4686,2.4692,2.4761,2.4774,2.481,2.4749,2.4938,2.4943,2.4947,2.4982,2.4991,2.4999,0,0,0,0,0,2.4452,2.4516,2.4509,2.4524,2.4601,2.466,2.467,2.4676,2.4651,2.4681,2.4697,2.4685,2.4799,2.4768,2.4783,2.4821,2.4936,2.4942,2.4947,2.4979,2.4989,2.4999,0,0,0,0,0,0,2.4483,2.4521,2.4514,2.4592,2.4623,2.4657,2.4695,2.4687,2.4726,2.4721,2.4726,2.4734,2.48,2.4818,2.4783,2.4896,2.4864,2.4872,2.4883,2.4893,2.4901,2.4895,2.4753,0,0,0,0,0,2.4498,2.4544,2.4575,2.464,2.4656,2.4673,2.4699,2.47,2.4733,2.4746,2.4767,2.4798,2.484,2.4868,2.4909,2.4985,2.4991,2.5018,2.5026,2.5033,2.504,2.5078,2.5089,2.4968,2.4968,2.4968,0,0,2.4531,2.4558,2.4586,2.4647,2.4671,2.4716,2.4684,2.4735,2.4768,2.4753,2.4815,2.4832,2.4867,2.4937,2.4969,2.4953,2.5075,2.504,2.5045,2.5048,2.5084,2.5096,2.5106,2.4972,2.4971,2.4971,0,0,2.4613,2.464,2.4695,2.472,2.4757,2.4768,2.4781,2.4816,2.4826,2.4889,2.4877,2.4917,2.4991,2.5015,2.5036,2.5125,2.5114,2.5139,2.5181,2.5218,2.5227,2.5235,2.5264,2.5274,2.5146,2.5146,2.5146,0,2.4649,2.4718,2.4724,2.4775,2.48,2.4789,2.4844,2.4867,2.4916,2.4933,2.4915,2.5005,2.5028,2.5102,2.5123,2.5143,2.5155,2.5133,2.5225,2.5234,2.5242,2.5269,2.528,2.5148,2.5148,2.5148,2.5147,0,2.4758,2.4806,2.4847,2.4893,2.4923,2.4976,2.4988,2.5017,2.5016,2.5027,2.509,2.5117,2.5161,2.5179,2.5179,2.5252,2.524,2.5224,2.5191,2.5256,2.5281,2.5291,2.5152,2.5151,2.515,2.515,0,0,2.4862,2.491,2.4924,2.4943,2.4983,2.5019,2.507,2.5113,2.5137,2.5171,2.5211,2.5273,2.5257,2.5282,2.5284,2.5317,2.5381,2.5296,2.5296,2.5308,2.5459,2.5469,2.5481,2.5374,2.5376,2.5378,2.5455,0,2.4945,2.5034,2.504,2.5121,2.5163,2.5152,2.5196,2.5224,2.5236,2.5272,2.5285,2.5327,2.5305,2.532,2.5352,2.5366,2.541,2.5361,2.5409,2.5411,2.5398,2.5495,2.5506,2.5578,2.5465,2.5467,2.5468,0,2.5054,2.5089,2.5174,2.5204,2.5222,2.5262,2.53,2.5336,2.5367,2.5373,2.5399,2.5396,2.5445,2.5412,2.5479,2.5445,2.5465,2.5475,2.5477,2.548,2.5442,2.5497,2.5601,2.561,2.5484,2.5483,2.5482,0,2.5116,2.5186,2.5244,2.5262,2.53,2.5327,2.5344,2.5372,2.5397,2.543,2.5446,2.5485,2.5506,2.5535,2.5541,2.5517,2.5607,2.5574,2.5611,2.561,2.5628,2.5626,2.5734,2.5646,2.5646,2.5646,2.5646,0,2.5206,2.5257,2.5272,2.5308,2.5364,2.537,2.5425,2.5439,2.5464,2.5501,2.5495,2.5529,2.5537,2.5572,2.5578,2.563,2.564,2.5645,2.5645,2.5644,2.5643,2.5655,2.5649,2.5649,2.5648,2.5648,2.5647,0,2.5284,2.5297,2.5359,2.539,2.5399,2.5438,2.5463,2.5496,2.5507,2.5554,2.5565,2.5582,2.5623,2.5632,2.5682,2.5685,2.5746,2.5743,2.5735,2.5734,2.5768,2.5764,2.5885,2.59,2.5806,2.5807,2.5807,0,2.534,2.5379,2.5413,2.5437,2.5455,2.5495,2.552,2.5526,2.5552,2.5588,2.5616,2.5656,2.5689,2.5755,2.577,2.5807,2.5803,2.5843,2.5808,2.5804,2.5799,2.5795,2.5798,2.5848,2.5849,2.585,2.5851,0,2.5436,2.5439,2.5476,2.5514,2.5543,2.5574,2.5602,2.5622,2.5632,2.5661,2.5703,2.5728,2.5778,2.5816,2.5853,2.5869,2.586,2.5862,2.5871,2.5869,2.5862,2.5863,2.575,2.5858,2.5858,2.5857,2.5857,2.5856,2.5502,2.5535,2.5563,2.5603,2.5625,2.5651,2.5683,2.5697,2.5733,2.5773,2.5775,2.5819,2.5846,2.5894,2.5912,2.5945,2.5933,2.5948,2.5951,2.5954,2.5955,2.5859,2.5953,2.5952,2.5952,2.5952,2.5952,0,2.5594,2.5612,2.5649,2.5688,2.5719,2.571,2.574,2.5766,2.5805,2.5831,2.5863,2.5909,2.5947,2.5965,2.6001,2.6024,2.6021,2.6033,2.603,2.6033,2.5966,2.5952,2.6035,2.6035,2.6035,2.6035,2.6035,2.6035,2.5646,2.57,2.5706,2.577,2.5787,2.5831,2.5848,2.5872,2.5892,2.5944,2.5975,2.5986,2.6008,2.6046,2.6079,2.6083,2.6095,2.6108,2.611,2.6047,2.6038,2.603,2.6017,2.6112,2.6112,2.6174,2.6174,2.6175]},{"header":{"parameterUnit":"m.s-1","parameterCategory":1,"la1":30.2991,"la2":30.254,"lo1":-89.0895,"lo2":-89.0444,"dy":0.0017,"dx":0.0017,"nx":28,"ny":28,"refTime":"2024-04-23T09:00:00:Z","depth":0,"parameterNumber":3,"parameterNumberName":"V-component_of_WINDS"},"data":[0,0,0,0,0,0,0,0,0,0,0,0,0,0,0,0,0,0,0,0,0,0,0,0,0,0,0,0,0,0,0,0,0,0,0,0,0,0,0,0,0,0,0,0,0,0,0,0,0,0,0,0,0,0,0,0,0,0,1.7746,1.7747,0,1.7835,1.7836,1.7837,1.7831,1.783,1.7828,1.7827,1.7915,1.7918,1.7921,0,0,0,0,0,0,0,0,0,0,0,0,0,1.7567,1.757,1.7746,1.7747,1.7748,1.7835,1.7836,1.7837,1.7831,1.783,1.7828,1.7826,1.7913,1.7918,1.7922,0,0,0,0,0,0,0,0,0,0,0,0,0,1.7649,1.7571,1.7746,1.7756,1.7758,1.7835,1.7836,1.7838,1.7831,1.783,1.7828,1.7826,1.7912,1.7917,1.7922,1.7994,0,0,1.7939,1.7941,0,0,0,0,0,0,0,0,1.7644,1.7655,1.7753,1.7755,1.7757,1.782,1.7805,1.789,1.7832,1.7803,1.7827,1.7825,1.7884,1.7892,1.7913,1.7998,1.8002,1.7939,1.7942,1.7945,1.7946,0,0,0,0,0,0,0,1.7638,1.7652,1.7781,1.7755,1.7757,1.7754,1.7764,1.7821,1.7854,1.7806,1.7805,1.7816,1.7885,1.7908,1.7915,1.8003,1.7939,1.7944,1.7947,1.7949,1.8149,1.8151,0,0,0,0,0,0,1.7631,1.7647,1.7778,1.7784,1.7695,1.7759,1.777,1.7802,1.7853,1.7859,1.7818,1.7816,1.7899,1.7909,1.7918,1.8004,1.7945,1.795,1.7953,1.8147,1.815,1.8152,0,0,0,0,0,0,1.7627,1.7643,1.7775,1.7715,1.7732,1.7764,1.78,1.7805,1.7827,1.7862,1.7868,1.7835,1.7898,1.791,1.7975,1.8007,1.7952,1.7957,1.8145,1.8148,1.8151,1.8177,0,0,0,0,0,0,1.7622,1.7642,1.7671,1.7716,1.7735,1.7832,1.7802,1.7808,1.7837,1.7835,1.788,1.7885,1.7898,1.7967,1.798,1.8013,1.7961,1.8142,1.8146,1.815,1.8174,1.8181,1.8187,0,0,0,0,0,1.7616,1.7674,1.7672,1.7688,1.7772,1.7834,1.7845,1.7859,1.7839,1.7868,1.789,1.7884,1.8001,1.7974,1.7988,1.8023,1.814,1.8145,1.815,1.8171,1.8179,1.8187,0,0,0,0,0,0,1.7631,1.7681,1.7679,1.7754,1.779,1.7833,1.787,1.7868,1.7909,1.7906,1.792,1.793,1.7995,1.8015,1.7984,1.8094,1.8068,1.8076,1.8079,1.8087,1.8094,1.8087,1.7965,0,0,0,0,0,1.7644,1.7691,1.7731,1.7793,1.7811,1.7837,1.7865,1.7872,1.791,1.7924,1.7951,1.7987,1.8031,1.806,1.8103,1.8176,1.8185,1.8207,1.8214,1.8219,1.8226,1.8264,1.8274,1.8168,1.8168,1.8168,0,0,1.7669,1.7702,1.7731,1.7797,1.7826,1.7873,1.785,1.7902,1.7936,1.7932,1.7995,1.8015,1.8055,1.8124,1.8155,1.8143,1.8257,1.8225,1.8229,1.8233,1.827,1.828,1.8289,1.8171,1.8171,1.817,0,0,1.774,1.777,1.7825,1.7854,1.7898,1.7914,1.7927,1.797,1.7984,1.8047,1.8044,1.8084,1.8161,1.819,1.8214,1.8292,1.8288,1.8306,1.8341,1.8378,1.8386,1.8394,1.842,1.843,1.8312,1.8312,1.8312,0,1.7766,1.7839,1.7853,1.7904,1.7932,1.7931,1.7985,1.8012,1.8067,1.8086,1.8071,1.8166,1.8194,1.8268,1.8287,1.8307,1.832,1.8301,1.8384,1.8392,1.8399,1.8424,1.8435,1.8314,1.8314,1.8314,1.8314,0,1.7868,1.7918,1.7956,1.801,1.8042,1.8095,1.8115,1.8146,1.8149,1.8167,1.8229,1.8261,1.831,1.8328,1.8332,1.8402,1.8393,1.8381,1.8355,1.8411,1.8435,1.8445,1.8317,1.8316,1.8316,1.8315,0,0,1.7953,1.8012,1.8026,1.8049,1.8096,1.8134,1.8185,1.8234,1.8259,1.8296,1.8338,1.8402,1.8391,1.8418,1.8425,1.8458,1.8516,1.8442,1.8443,1.8453,1.8593,1.8601,1.8612,1.8513,1.8515,1.8516,1.8589,0,1.8027,1.812,1.8133,1.8213,1.8258,1.8256,1.83,1.8333,1.835,1.8389,1.8407,1.8451,1.8434,1.845,1.8482,1.8502,1.8544,1.8497,1.855,1.8552,1.8541,1.8625,1.8635,1.8702,1.8598,1.86,1.8601,0,1.8128,1.8168,1.8253,1.8292,1.8312,1.8351,1.8395,1.8433,1.8469,1.8479,1.8508,1.8511,1.8561,1.8533,1.8601,1.8569,1.8591,1.8604,1.8607,1.8613,1.858,1.8632,1.8724,1.8733,1.8617,1.8615,1.8614,0,1.818,1.8255,1.8315,1.8336,1.8383,1.841,1.8431,1.8465,1.8492,1.853,1.8547,1.859,1.8614,1.8646,1.8659,1.8637,1.8726,1.8699,1.8734,1.8734,1.8753,1.8752,1.8849,1.8768,1.8768,1.8768,1.8768,0,1.8262,1.8314,1.8339,1.8376,1.8433,1.8446,1.8502,1.8522,1.8551,1.8591,1.8591,1.8627,1.8643,1.8681,1.8691,1.8745,1.8756,1.8764,1.8766,1.8764,1.8763,1.8779,1.8774,1.8771,1.877,1.8769,1.8769,0,1.833,1.8349,1.8414,1.8453,1.8464,1.8504,1.8537,1.8572,1.8587,1.8637,1.8649,1.8673,1.8718,1.8734,1.8788,1.8795,1.8858,1.8856,1.8846,1.8846,1.8881,1.8877,1.8991,1.9006,1.8916,1.8917,1.8917,0,1.8381,1.8421,1.8464,1.849,1.8512,1.8555,1.8583,1.8596,1.8625,1.8667,1.8696,1.8741,1.8778,1.8849,1.887,1.8911,1.891,1.8947,1.8916,1.8912,1.891,1.8907,1.891,1.8953,1.8954,1.8955,1.8955,0,1.8469,1.8476,1.8517,1.856,1.8594,1.8628,1.8662,1.8683,1.8701,1.8733,1.8779,1.8807,1.8862,1.8906,1.8947,1.8967,1.8964,1.8965,1.8975,1.8973,1.8965,1.8969,1.8861,1.8962,1.8962,1.8961,1.8961,1.896,1.853,1.8564,1.86,1.8644,1.8671,1.8701,1.8736,1.8755,1.8794,1.8841,1.8846,1.8895,1.8927,1.8982,1.9003,1.9041,1.903,1.9045,1.9049,1.9052,1.9054,1.896,1.9048,1.9048,1.9048,1.9048,1.9048,0,1.8617,1.8639,1.868,1.8727,1.8761,1.8756,1.8792,1.8821,1.8864,1.8895,1.8931,1.8982,1.9024,1.9048,1.909,1.9115,1.9114,1.9125,1.9123,1.9127,1.9062,1.9049,1.9125,1.9125,1.9125,1.9124,1.9124,1.9124,1.8667,1.8725,1.8735,1.8805,1.8826,1.8875,1.8896,1.8924,1.8948,1.9006,1.9041,1.9057,1.9084,1.9127,1.9164,1.917,1.9185,1.9197,1.9201,1.914,1.9132,1.9124,1.9112,1.92,1.92,1.9263,1.9264,1.9264]}]]